Domov               UVHVVR             MKGP            O straneh              
ZDRAVSTVENO VARSTVO RASTLIN
  MREŽA AGROMET. POSTAJ
 ► PROGNOSTIČNA OBVESTILA
AGROMETEOROLOŠKI PODATKI -
ARSO
OBVLADOVANJE TVEGANJ ZARADI
NEUGODNIH VREMENSKIH RAZMER
  ► NARAVNE NESREČE
  ► SUŠA/MOČA
  ► NAMAKANJE
  ► ŽLED (gozdarstvo)
KARTOGRAFSKI PRIKAZI
SPLETNE POVEZAVE
PROJEKTI IN PUBLIKACIJE

AGROMETEOROLOŠKA MREŽA: VREMENSKE POSTAJE IN FENOLOŠKA OPAZOVANJA

Pregled podatkov za lokacijo Senožeti, meteorološka postaja 37929

Pregled senzorjev na lokaciji

ID Ime Zadnja
vrednost
Datum
zadnje
spremembe
Tip
senzorja
1791 Omočenost lista (U) 3 U 11.12.2017 10:00 A730WET
1792 Temperatura 2 m (°C) 1,2 °C 11.12.2017 10:00 50YA
1793 Relativna vlaga 2 m (% RH) 99,93 % RH 11.12.2017 10:00 50YA
1794 Padavine (mm) 0,2 mm 11.12.2017 10:00 Rain-O-Matic

Pregled podatkov zadnjih 24 ur

Zap.
št.
Datum in čas Senožeti
Omočenost
lista
Padavine Relativna
vlaga
2
m
Temperatura
2
m
0 11.12.2017 10:00 3 0,2 99,93 1,2
1 11.12.2017 09:30 3 0,2 99,93 1,12
2 11.12.2017 09:00 3 0,2 99,93 0,93
3 11.12.2017 08:30 3 0,2 99,93 0,78
4 11.12.2017 08:00 3 0 99,93 0,66
5 11.12.2017 07:30 3 0,2 99,93 0,63
6 11.12.2017 07:00 3 0,2 99,93 0,71
7 11.12.2017 06:30 3 0 99,93 0,66
8 11.12.2017 06:00 3 0 99,93 0,61
9 11.12.2017 05:30 3 0 99,93 0,54
10 11.12.2017 05:00 3 0 99,93 0,49
11 11.12.2017 04:30 3 0 99,93 0,56
12 11.12.2017 04:00 3 0 99,93 0,59
13 11.12.2017 03:30 2 0 99,93 0,56
14 11.12.2017 03:00 2 0 99,93 0,54
15 11.12.2017 02:30 2 0 99,93 0,46
16 11.12.2017 02:00 2 0 99,93 0,61
17 11.12.2017 01:30 2 0 99,93 0,71
18 11.12.2017 01:00 2 0 99,93 0,71
19 11.12.2017 00:30 2 0 99,93 0,59
20 11.12.2017 00:00 2 0 99,93 0,73
21 10.12.2017 23:30 2 0 99,93 0,78
22 10.12.2017 23:00 2 0 99,8 0,78
23 10.12.2017 22:30 3 0 99,83 0,68
24 10.12.2017 22:00 5 0 99,93 0,49
25 10.12.2017 21:30 5 0 99,93 0,32
26 10.12.2017 21:00 4 0 99,93 0,02
27 10.12.2017 20:30 3 0 99,93 -0,15
28 10.12.2017 20:00 1 0 99,93 -0,24
29 10.12.2017 19:30 1 0 99,93 -0,32
30 10.12.2017 19:00 1 0 99,93 -0,51
31 10.12.2017 18:30 1 0 99,93 -0,68
32 10.12.2017 18:00 1 0 99,85 -0,85
33 10.12.2017 17:30 0 0 99,8 -1,05
34 10.12.2017 17:00 0 0 99,02 -1,34
35 10.12.2017 16:30 0 0 97,36 -1,66
36 10.12.2017 16:00 0 0 95,65 -1,71
37 10.12.2017 15:30 0 0 93,97 -2,08
38 10.12.2017 15:00 0 0 91,94 -2,03
39 10.12.2017 14:30 0 0 90,87 -2,1
40 10.12.2017 14:00 0 0 88,25 -1,9
41 10.12.2017 13:30 0 0 87,35 -1,64
42 10.12.2017 13:00 0 0 87,55 -1,86
43 10.12.2017 12:30 0 0 88,52 -2,25
44 10.12.2017 12:00 0 0 87,84 -2,1
45 10.12.2017 11:30 1 0 84 -1,61
46 10.12.2017 11:00 2 0 77,9 -0,83
© 2011 Ministrstvo za kmetijstvo, gozdarstvo in prehrano. Vse pravice pridržane.